Dewpoint
-4 -4 -4 -4 -4 -4 -4 -4 -4 -4 -4 -4 -5 -4 -3 -3 -3 -2 -2 -2 -1 0 0 -0 -0 -0 1 2 1 1 1 1 0 2 2 1 2 -1 -1 -3 -3 -3 -2 -1 -1 -0 -0 -9 -10 -7 -7 -10 -10 -8
-6 -6 -5 -5 -5 -5 -6 -6 -5 -5 -4 -5 -4 -4 -6 -5 -4 -4 -3 -3 -2 -2 -1 -1 -1 -1 -1 0 0 1 0 -0 1 1 1 2 2 2 0 1 -3 0 -3 -2 -3 -3 -7 -9 -9 -10 -10 -9 -9 -11
-7 -6 -6 -6 -5 -6 -6 -5 -6 -6 -6 -6 -6 -6 -5 -5 -5 -5 -4 -3 -3 -2 -2 -2 -2 -7 -2 0 -1 1 0 1 1 -0 1 1 1 -1 0 -1 -3 -3 -3 -1 -1 -2 -2 -5 -9 -9 -9 -9 -11 -12
-8 -8 -7 -6 -7 -6 -6 -5 -5 -5 -5 -6 -7 -5 -5 -6 -5 -5 -3 -4 -3 -2 -3 -3 -4 -3 -4 -5 -5 -4 -2 0 0 0 -0 1 0 -1 -1 -1 -1 -1 -1 -1 -0 -2 -3 -3 -3 -4 -5 -8 -9 -11
-8 -8 -7 -7 -6 -6 -6 -5 -5 -5 -5 -5 -6 -7 -6 -6 -6 -5 -5 -5 -5 -3 -3 -4 -5 -4 -4 -4 -4 -4 -2 -1 -1 -1 -1 -2 -4 -4 -2 -1 -1 -4 -5 -3 -2 -5 -3 -5 -6 -8 -8 -7 -7 -11
-8 -8 -8 -6 -6 -6 -6 -7 -7 -7 -6 -7 -6 -7 -8 -8 -7 -5 -4 -7 -8 -4 -4 -4 -8 -10 -7 -6 -4 -4 -4 -2 -1 -2 -2 -4 -4 -3 -2 -2 -5 -6 -6 -7 -6 -7 -8 -9 -8 -9 -10 -11 -11 -11
-9 -8 -8 -9 -9 -9 -9 -8 -8 -8 -8 -7 -8 -8 -8 -8 -7 -5 -5 -4 -4 -4 -5 -4 -4 -6 -6 -5 -5 -5 -4 -4 -3 -3 -3 -4 -4 -4 -4 -3 -7 -10 -11 -11 -12 -12 -13 -13 -13 -13 -12 -13 -14 -14
-8 -8 -9 -9 -9 -9 -8 -7 -6 -7 -8 -8 -8 -7 -7 -8 -5 -5 -7 -8 -5 -5 -5 -5 -5 -6 -8 -6 -7 -7 -7 -8 -7 -7 -8 -8 -8 -7 -6 -10 -14 -14 -15 -15 -15 -14 -13 -14 -14 -15 -15 -15 -15 -16
-9 -8 -8 -8 -9 -9 -9 -9 -6 -6 -7 -8 -7 -9 -8 -6 -6 -5 -5 -5 -5 -7 -5 -5 -5 -5 -9 -9 -9 -9 -8 -7 -10 -8 -9 -10 -7 -7 -14 -16 -15 -15 -15 -16 -16 -16 -16 -16 -17 -17 -16 -17 -16 -17
-10 -10 -10 -9 -9 -8 -9 -11 -10 -9 -5 -6 -7 -7 -6 -5 -6 -6 -6 -6 -6 -6 -8 -9 -11 -8 -9 -9 -8 -9 -10 -8 -8 -11 -13 -12 -11 -19 -18 -17 -16 -17 -17 -17 -17 -18 -18 -18 -18 -18 -17 -17 -17 -18
-8 -9 -10 -10 -8 -7 -7 -11 -9 -7 -5 -6 -7 -6 -6 -7 -8 -8 -8 -7 -8 -10 -13 -13 -13 -11 -12 -10 -9 -11 -10 -11 -11 -14 -14 -13 -14 -20 -19 -19 -18 -18 -18 -17 -17 -17 -17 -17 -17 -18 -18 -19 -19 -20
-6 -7 -6 -7 -7 -8 -9 -10 -9 -7 -7 -7 -7 -7 -7 -7 -8 -8 -8 -9 -12 -13 -13 -13 -13 -14 -13 -12 -11 -11 -11 -11 -10 -13 -13 -14 -17 -20 -20 -19 -19 -18 -18 -17 -17 -18 -19 -19 -20 -20 -21 -22 -23 -26
-6 -6 -8 -9 -9 -9 -10 -10 -9 -7 -6 -7 -7 -10 -11 -12 -13 -13 -13 -11 -12 -15 -14 -14 -14 -13 -13 -12 -12 -12 -11 -12 -15 -13 -11 -14 -18 -20 -20 -19 -19 -19 -19 -22 -23 -22 -22 -23 -24 -25 -27 -27 -27 -27
-9 -10 -11 -10 -9 -8 -8 -8 -7 -7 -9 -10 -12 -14 -14 -14 -14 -14 -15 -15 -15 -16 -15 -15 -14 -13 -13 -13 -13 -12 -15 -15 -13 -12 -12 -15 -18 -18 -19 -19 -19 -21 -23 -25 -25 -26 -27 -27 -28 -28 -28 -28 -29 -29
-7 -8 -11 -13 -8 -8 -7 -6 -8 -9 -13 -15 -17 -14 -15 -15 -15 -16 -16 -15 -15 -17 -16 -15 -14 -14 -13 -13 -13 -13 -13 -13 -12 -13 -15 -18 -21 -22 -19 -19 -20 -21 -23 -25 -26 -27 -27 -27 -28 -28 -29 -29 -29 -30
-8 -10 -9 -14 -8 -9 -8 -7 -7 -15 -18 -18 -18 -16 -17 -16 -17 -17 -17 -17 -16 -18 -16 -15 -14 -13 -12 -13 -13 -12 -12 -15 -16 -19 -19 -19 -22 -22 -22 -21 -21 -22 -23 -25 -26 -26 -27 -27 -27 -28 -29 -29 -30 -30
-14 -13 -9 -17 -15 -10 -13 -17 -18 -17 -17 -17 -16 -16 -16 -16 -17 -17 -18 -18 -22 -17 -15 -14 -13 -14 -14 -14 -14 -17 -18 -19 -19 -20 -19 -21 -22 -25 -23 -23 -22 -22 -23 -24 -25 -26 -26 -27 -27 -28 -29 -30 -30 -30
-20 -18 -11 -17 -23 -29 -26 -20 -19 -19 -16 -17 -17 -17 -17 -16 -17 -21 -21 -22 -23 -18 -17 -18 -17 -17 -17 -18 -18 -19 -20 -20 -20 -20 -21 -23 -23 -25 -27 -25 -24 -23 -23 -24 -25 -25 -26 -27 -27 -29 -29 -30 -30 -30
-27 -27 -28 -31 -31 -30 -23 -23 -23 -17 -17 -17 -17 -18 -18 -18 -22 -23 -22 -23 -21 -20 -19 -18 -19 -18 -19 -19 -19 -21 -21 -21 -22 -22 -22 -24 -21 -25 -27 -27 -25 -25 -24 -24 -25 -26 -26 -27 -28 -29 -30 -30 -30 -30
-32 -31 -31 -30 -30 -23 -20 -19 -18 -19 -16 -19 -20 -22 -23 -25 -23 -22 -21 -22 -23 -21 -20 -19 -19 -20 -20 -21 -22 -22 -23 -23 -23 -23 -23 -21 -22 -23 -24 -26 -27 -26 -25 -25 -25 -25 -26 -27 -29 -30 -30 -30 -30 -30
-30 -31 -31 -32 -31 -28 -22 -18 -18 -17 -16 -15 -20 -20 -17 -26 -24 -23 -21 -21 -21 -19 -21 -20 -21 -22 -23 -23 -24 -24 -23 -23 -23 -24 -24 -23 -23 -21 -21 -21 -26 -26 -26 -26 -26 -27 -23 -25 -27 -30 -30 -30 -29 -28
-31 -31 -30 -30 -30 -30 -29 -27 -24 -28 -21 -24 -23 -23 -22 -20 -23 -28 -21 -19 -18 -19 -20 -21 -22 -23 -23 -23 -23 -23 -23 -23 -23 -23 -23 -22 -22 -22 -21 -21 -22 -24 -26 -26 -27 -28 -29 -29 -28 -27 -27 -29 -27 -27
-32 -31 -31 -30 -29 -29 -27 -28 -27 -28 -24 -25 -22 -22 -23 -21 -25 -24 -21 -20 -20 -20 -20 -22 -22 -23 -23 -23 -23 -23 -24 -24 -24 -24 -23 -23 -23 -22 -22 -22 -22 -22 -22 -22 -23 -26 -28 -29 -27 -23 -24 -26 -27 -28
-32 -31 -30 -29 -28 -27 -28 -26 -27 -24 -26 -23 -25 -26 -25 -26 -25 -19 -23 -20 -20 -20 -21 -22 -23 -23 -24 -24 -24 -24 -24 -24 -24 -23 -23 -23 -23 -23 -23 -22 -22 -22 -22 -22 -22 -22 -22 -23 -25 -26 -24 -25 -25 -25
-32 -30 -29 -27 -27 -25 -24 -23 -24 -23 -25 -25 -26 -25 -25 -26 -25 -24 -22 -19 -20 -21 -22 -23 -24 -24 -25 -25 -24 -25 -24 -25 -25 -25 -23 -24 -23 -23 -23 -23 -23 -22 -22 -22 -22 -22 -22 -22 -22 -22 -24 -25 -26 -25
-31 -29 -28 -25 -25 -25 -24 -25 -24 -25 -25 -27 -24 -22 -25 -26 -26 -24 -20 -20 -21 -22 -22 -24 -24 -24 -25 -25 -26 -25 -25 -25 -25 -24 -24 -23 -23 -23 -23 -23 -23 -23 -23 -23 -23 -23 -23 -23 -23 -23 -23 -23 -23 -23
-33 -27 -28 -28 -27 -26 -23 -24 -25 -23 -26 -24 -24 -24 -26 -27 -24 -22 -19 -20 -21 -21 -24 -27 -26 -25 -25 -26 -30 -28 -26 -26 -26 -25 -24 -23 -23 -23 -23 -23 -23 -23 -23 -23 -23 -23 -23 -23 -23 -23 -23 -23 -23 -23
-29 -28 -26 -26 -27 -27 -26 -24 -25 -25 -23 -24 -23 -22 -24 -24 -23 -20 -20 -20 -20 -22 -25 -29 -29 -28 -28 -28 -30 -29 -28 -29 -28 -28 -27 -26 -24 -24 -24 -24 -24 -23 -23 -23 -23 -23 -23 -23 -23 -23 -23 -23 -23 -23
-27 -27 -26 -27 -28 -27 -26 -24 -22 -25 -25 -25 -21 -21 -23 -25 -25 -23 -22 -22 -20 -21 -24 -29 -30 -30 -29 -28 -28 -27 -27 -27 -27 -27 -27 -27 -27 -28 -27 -25 -25 -26 -27 -27 -25 -23 -22 -22 -22 -23 -23 -23 -23 -23
-26 -26 -26 -26 -25 -21 -26 -28 -26 -25 -25 -24 -24 -24 -24 -24 -25 -25 -24 -22 -21 -22 -24 -27 -29 -29 -29 -27 -27 -27 -27 -27 -28 -29 -29 -28 -27 -27 -27 -26 -26 -27 -27 -25 -24 -24 -22 -22 -22 -23 -23 -24 -24 -24
-27 -27 -26 -27 -24 -26 -28 -29 -29 -27 -25 -25 -24 -23 -23 -23 -25 -24 -22 -20 -21 -22 -24 -25 -27 -28 -28 -27 -27 -27 -27 -28 -28 -28 -28 -28 -27 -28 -26 -26 -27 -27 -26 -25 -24 -24 -23 -23 -23 -22 -23 -23 -23 -24
-27 -27 -29 -23 -23 -28 -28 -30 -30 -28 -27 -26 -26 -24 -22 -21 -22 -20 -20 -20 -21 -22 -23 -25 -27 -27 -27 -27 -27 -28 -29 -29 -28 -28 -29 -28 -27 -27 -27 -28 -27 -27 -26 -27 -25 -24 -24 -24 -23 -23 -23 -23 -23 -24
-28 -27 -27 -27 -26 -24 -28 -31 -29 -29 -29 -29 -28 -24 -21 -20 -20 -19 -19 -21 -22 -23 -23 -24 -26 -27 -27 -27 -27 -27 -28 -28 -29 -30 -30 -28 -28 -27 -28 -29 -28 -27 -29 -29 -26 -25 -25 -24 -24 -23 -23 -23 -23 -24
Wind_Speed
17 18 20 19 19 18 18 19 20 21 21 20 20 22 21 22 23 21 27 27 31 17 28 27 26 23 19 16 10 2 5 4 6 10 9 10 8 12 13 23 14 15 11 8 11 13 18 12 5 12 15 4 7 18
19 19 18 18 18 16 17 17 16 18 20 21 20 20 23 24 24 23 31 28 27 31 29 21 26 35 44 33 21 20 10 7 12 5 3 2 4 3 6 14 8 14 13 10 12 8 6 25 24 40 27 21 15 13
18 18 17 17 15 14 15 17 17 18 18 18 19 21 22 22 22 23 28 30 27 22 26 38 34 54 39 30 34 20 11 20 16 22 3 5 9 4 9 13 19 15 9 15 19 17 18 22 29 20 10 22 20 14
18 18 17 17 17 17 17 18 18 20 19 20 19 18 18 20 22 23 23 25 24 12 5 13 25 17 25 40 46 49 43 29 25 24 7 8 11 5 11 11 14 6 4 4 10 11 9 20 13 14 20 24 20 19
16 16 16 17 17 17 17 16 18 17 18 18 19 19 19 18 18 19 22 26 27 19 4 9 25 22 22 20 24 34 40 38 32 18 11 15 20 20 12 7 11 15 20 12 17 1 3 3 8 7 12 15 18 16
12 13 14 15 14 13 13 14 15 17 17 17 17 16 17 17 17 17 10 17 20 21 8 4 21 40 34 29 27 30 31 31 25 14 6 12 23 7 8 9 9 7 7 10 4 12 6 7 7 8 11 11 10 10
10 10 10 11 13 14 14 15 16 15 15 14 14 14 15 16 15 18 7 3 6 17 4 4 5 4 7 17 12 12 17 10 12 8 7 12 16 9 2 4 1 3 7 6 6 5 3 5 4 6 9 10 10 12
11 12 13 14 15 17 18 17 16 17 16 15 14 14 15 15 17 21 27 26 25 12 6 3 4 2 1 2 3 9 6 4 6 2 1 1 2 2 4 2 6 5 1 0 3 5 5 7 8 9 10 11 11 11
11 12 13 13 13 14 15 17 18 18 18 15 13 13 12 12 8 8 11 15 15 10 3 3 4 3 2 0 1 2 4 3 3 1 2 1 1 5 1 5 9 5 3 1 4 6 8 11 13 13 12 11 10 10
11 12 10 10 12 13 13 13 16 15 15 13 9 4 3 4 8 9 4 2 3 6 2 1 6 1 4 2 1 1 1 1 2 1 4 2 3 5 5 4 0 1 3 6 10 7 10 12 13 13 11 9 8 8
11 11 10 11 11 13 13 10 9 5 8 8 7 5 5 2 2 1 2 2 5 2 8 7 7 3 7 2 1 2 0 2 2 2 2 2 3 2 1 2 3 4 6 6 3 5 7 9 12 11 11 9 8 6
9 12 12 9 7 6 4 5 5 3 5 8 6 5 3 4 1 1 1 3 5 3 7 4 6 4 4 3 2 1 1 1 1 1 2 2 1 2 5 5 7 7 5 5 6 7 8 10 10 10 9 8 6 5
12 12 12 11 8 7 6 4 2 2 7 8 3 4 6 9 7 6 7 3 3 7 8 11 4 5 4 3 1 2 2 0 1 1 1 2 3 1 4 4 6 5 6 6 8 9 9 10 10 8 6 5 3 3
14 15 15 12 9 7 4 6 9 8 4 6 6 6 5 4 4 3 3 3 6 8 15 17 6 2 3 2 2 2 1 1 1 1 1 2 12 7 6 6 6 6 7 7 8 9 8 7 6 4 3 4 4 4
14 11 15 18 11 7 4 3 4 5 7 7 8 5 4 4 2 7 9 9 7 14 15 10 8 4 1 2 0 1 2 3 2 4 3 12 19 11 8 7 8 8 8 8 8 8 7 5 4 4 4 4 4 5
9 9 12 20 10 10 11 8 6 10 8 7 9 3 10 3 6 9 13 14 13 22 13 6 3 2 0 3 2 3 5 5 3 4 17 20 17 12 8 8 9 9 9 9 9 9 8 7 6 5 6 5 5 6
8 7 11 19 15 8 7 11 10 10 7 5 5 6 7 5 7 14 15 14 20 10 3 3 5 4 3 4 3 4 3 6 14 20 18 20 20 15 11 10 11 11 12 12 11 11 10 9 8 8 7 7 7 7
29 20 12 10 12 26 30 15 8 8 8 8 3 5 6 7 12 14 19 21 14 10 8 2 4 5 4 5 4 4 18 21 20 20 23 25 23 18 14 11 11 12 12 13 13 13 13 12 11 9 9 8 8 8
31 22 18 17 16 11 7 9 9 6 5 3 4 7 4 5 8 21 24 25 21 13 5 6 5 3 4 6 13 23 24 23 25 27 29 21 16 14 12 11 11 12 14 14 15 15 14 12 11 12 10 9 8 8
37 34 30 24 13 6 6 8 6 5 3 2 3 3 5 6 13 15 20 28 20 10 8 4 3 11 17 24 25 25 25 25 24 23 23 10 16 16 15 13 12 12 13 14 15 15 16 15 14 12 12 12 11 9
26 29 31 31 34 19 8 6 7 5 2 1 4 2 1 1 2 11 17 15 13 5 3 10 19 23 26 24 21 22 23 21 21 21 25 28 21 20 20 17 13 14 15 15 16 16 16 17 11 12 12 13 11 10
20 21 19 18 11 9 12 15 6 5 3 4 4 4 2 2 4 6 4 7 5 9 12 17 24 26 27 24 22 18 18 19 20 20 17 17 19 17 17 17 15 14 15 17 17 16 14 14 15 14 13 11 11 11
15 15 10 10 6 6 2 6 4 7 4 9 4 3 3 3 4 4 4 4 5 17 19 22 28 24 22 21 21 21 19 19 19 20 19 18 18 16 15 17 17 16 16 15 14 15 15 13 12 15 13 12 12 12
16 7 7 7 8 2 4 4 4 4 3 4 4 4 5 5 8 3 2 2 13 23 25 28 30 30 28 26 26 26 23 23 24 24 19 17 17 18 16 15 16 17 16 15 15 14 13 14 13 14 17 15 14 14
6 10 6 6 7 6 6 6 5 5 2 2 5 4 4 6 3 2 1 7 21 25 29 31 31 27 26 26 28 29 23 23 25 27 22 17 17 20 18 14 13 13 12 13 14 15 16 15 14 16 16 17 17 15
4 4 4 1 2 2 1 2 3 2 1 4 2 3 3 2 4 3 2 12 18 25 31 28 28 29 28 25 29 28 25 22 23 23 21 18 16 17 17 17 17 15 11 11 12 12 14 15 15 15 16 16 15 15
2 3 3 3 3 2 2 1 0 1 1 1 3 4 3 5 3 2 5 14 23 30 30 23 22 22 25 27 25 22 20 20 20 20 17 11 12 12 14 17 18 17 14 17 16 14 13 13 15 15 15 15 15 17
2 2 1 11 3 2 2 1 1 1 2 1 2 5 2 3 3 2 5 16 24 31 30 24 22 20 22 20 22 22 21 21 23 20 14 8 10 12 14 14 18 16 16 15 15 16 14 13 12 13 14 13 13 13
4 9 12 4 2 2 2 2 2 1 1 1 2 1 3 4 6 7 10 17 25 32 31 28 27 25 24 24 22 22 21 21 28 30 28 26 26 23 20 20 21 24 26 23 17 13 14 14 11 9 10 10 10 10
6 13 5 2 1 2 1 2 3 5 5 4 3 3 5 5 7 9 11 17 26 33 30 27 27 25 25 30 28 29 25 22 26 24 25 26 25 26 24 26 24 31 23 18 16 13 9 10 16 13 6 9 10 11
10 7 5 3 3 2 4 6 6 9 7 5 3 5 7 6 5 5 10 17 24 33 31 32 30 27 24 30 23 29 32 30 29 25 20 18 23 24 28 21 30 23 15 14 12 10 7 9 11 19 13 4 8 11
7 4 6 4 3 6 5 6 3 2 5 4 2 4 8 6 5 7 12 19 27 35 30 31 32 29 24 26 21 23 22 27 29 27 28 26 26 25 22 27 13 11 12 13 10 7 7 10 13 16 14 9 10 12
7 7 6 6 5 4 6 8 4 2 1 1 1 3 7 7 5 12 22 19 27 31 28 30 31 25 27 25 26 27 27 29 29 26 25 24 21 21 23 15 15 12 12 10 7 3 6 10 15 15 15 12 14 16
Wind_Direction
274 280 279 269 268 271 273 269 272 272 268 266 270 264 263 260 255 253 259 255 249 258 258 243 244 238 236 216 232 181 217 194 179 219 228 226 225 226 228 235 223 195 182 205 229 242 250 148 106 185 234 172 221 206
275 275 278 274 271 269 271 274 271 269 269 264 260 265 263 263 263 260 261 258 258 252 259 260 247 249 244 253 246 210 234 161 201 227 241 250 247 227 229 243 246 242 223 220 193 210 216 191 220 233 237 246 239 235
278 274 276 277 273 270 278 282 284 278 274 276 276 278 274 265 258 258 259 261 264 269 270 265 250 252 245 246 244 251 233 227 225 233 241 233 236 198 263 263 259 246 240 246 251 237 257 259 242 250 269 254 263 265
281 278 277 277 276 274 274 278 280 281 278 276 273 274 277 276 273 267 262 264 256 247 256 271 264 263 259 249 250 254 253 248 254 235 234 249 248 214 248 263 255 240 354 279 276 270 273 266 253 252 253 251 260 265
277 276 273 271 272 275 275 276 277 277 277 276 274 271 269 269 273 273 272 268 260 248 298 297 282 255 260 252 244 241 242 244 247 256 253 262 265 269 240 237 252 263 265 256 268 270 211 281 268 232 229 244 253 247
283 276 275 274 273 273 276 275 277 279 278 277 275 274 273 271 270 271 269 274 260 254 258 249 264 273 265 253 245 238 235 238 234 241 241 265 282 252 260 271 277 252 323 308 287 297 269 232 267 264 234 231 227 215
288 285 281 282 282 281 283 287 282 280 278 276 273 277 277 272 260 239 240 208 199 299 254 291 281 290 222 208 208 208 221 217 227 237 229 250 258 237 236 255 17 172 217 234 244 230 197 220 169 187 200 179 170 181
295 293 289 287 286 287 289 287 286 282 278 275 272 277 283 272 260 252 259 263 266 286 230 244 246 218 213 237 146 176 174 206 224 261 292 119 298 177 249 347 70 116 69 146 190 203 196 167 168 164 167 167 158 151
316 310 304 300 298 297 299 297 290 280 275 269 270 282 279 265 254 251 249 257 256 218 257 252 343 337 33 88 115 144 171 193 202 214 118 107 185 225 355 349 18 14 0 84 111 129 142 152 150 152 159 153 154 149
339 330 319 310 304 302 304 312 314 294 254 249 247 221 232 215 250 282 281 212 216 202 227 3 349 241 326 159 213 70 150 258 211 153 109 190 252 106 62 63 155 342 122 135 125 126 147 150 157 156 154 153 155 156
345 345 332 321 313 309 307 313 328 303 208 192 190 194 216 234 301 303 286 227 5 82 13 347 20 332 358 299 354 358 4 141 222 276 109 220 267 311 64 102 106 130 152 160 139 159 174 181 168 161 154 156 163 171
352 347 355 349 325 332 327 331 321 295 187 176 156 131 86 42 328 335 45 64 45 25 355 331 321 303 294 306 264 153 255 112 250 244 244 275 287 216 194 170 153 147 137 127 133 150 156 159 158 158 158 163 170 181
42 34 17 16 16 17 22 15 346 143 116 124 73 63 19 358 48 26 356 24 356 355 2 326 319 322 302 326 286 292 256 126 296 229 268 51 346 331 242 200 171 155 141 137 139 142 144 150 150 154 161 169 195 249
33 27 24 26 26 42 84 71 90 76 80 64 40 36 37 23 32 16 332 312 308 297 313 312 284 296 310 298 348 283 70 342 244 233 75 32 350 319 266 226 202 181 165 159 154 153 155 154 159 172 210 240 246 253
354 349 7 26 32 58 74 125 89 50 61 62 40 46 43 322 10 328 319 299 319 318 316 303 268 236 265 297 10 345 214 236 36 41 11 342 332 303 269 236 216 211 201 190 183 183 185 193 213 231 232 240 253 262
310 341 32 23 53 60 71 73 125 66 62 60 51 41 343 324 346 351 339 323 326 322 318 248 263 259 140 332 265 359 324 43 2 342 319 322 325 322 288 255 236 235 226 219 213 212 216 227 247 248 246 247 253 263
35 54 49 48 49 62 86 71 57 55 62 56 55 28 353 289 316 331 338 334 335 344 339 308 351 4 290 325 48 17 41 326 324 319 318 320 316 315 300 269 251 242 233 228 226 228 233 243 254 253 252 253 259 262
53 52 66 76 59 57 68 57 72 68 69 57 63 2 9 359 345 8 6 9 9 360 351 359 307 21 14 3 347 343 325 317 311 310 310 315 310 307 301 281 261 249 243 238 235 237 242 248 256 256 253 258 258 266
52 49 49 57 58 63 53 48 52 87 72 81 49 20 40 29 33 47 40 29 21 21 15 22 37 17 357 320 314 312 313 312 310 310 311 325 317 313 301 289 270 255 247 243 241 244 248 253 256 252 255 257 260 263
58 55 50 46 41 43 65 46 53 82 98 90 86 82 85 74 64 58 52 43 35 34 35 32 18 321 316 313 312 306 306 308 306 306 309 327 323 323 326 302 280 267 255 248 246 246 249 255 251 251 253 259 259 260
46 51 52 52 53 52 66 45 52 56 57 38 352 334 218 234 66 54 50 52 48 43 2 330 323 318 321 326 327 319 318 324 314 295 290 297 310 305 306 310 294 272 263 258 255 252 246 257 260 255 249 249 255 261
38 38 40 35 39 48 53 41 40 8 20 349 348 6 39 45 9 6 16 57 57 4 346 336 332 336 341 345 343 341 329 327 327 329 320 310 305 301 298 298 296 288 275 267 266 265 260 256 256 257 255 247 241 255
29 20 25 19 40 36 59 4 14 23 37 336 356 42 13 5 354 10 79 79 49 359 342 337 346 351 348 350 355 354 350 344 338 332 325 321 320 315 303 293 293 288 284 283 277 268 262 258 236 247 256 251 251 252
344 5 19 21 22 9 338 13 18 11 2 19 28 345 336 327 349 70 73 84 352 349 349 344 350 350 352 355 355 355 354 350 346 348 351 339 331 327 321 307 300 296 288 284 275 272 264 253 247 236 247 251 252 257
359 3 3 351 13 17 20 356 354 33 333 342 10 325 332 344 60 45 313 342 341 347 345 346 349 351 347 343 342 346 351 347 343 339 350 346 328 323 331 327 319 316 317 300 282 273 273 267 254 244 241 248 253 255
56 354 37 325 301 59 240 6 6 312 360 339 264 321 344 55 54 295 312 333 346 346 350 346 344 343 348 351 342 343 343 347 341 335 343 346 347 340 337 341 344 344 333 319 311 295 280 272 265 256 247 241 236 252
357 309 352 346 327 308 350 253 309 112 39 276 297 345 42 25 303 260 323 349 351 352 351 347 346 344 340 342 344 344 344 344 343 336 334 343 358 357 349 336 337 336 338 326 316 309 294 276 266 263 256 248 240 230
14 341 352 324 293 262 182 327 158 197 249 318 331 28 8 200 251 306 335 348 351 350 351 351 352 348 347 345 350 348 345 341 346 346 339 340 356 0 23 1 346 334 324 323 306 299 290 282 272 260 257 250 243 233
341 336 332 332 299 250 238 202 249 204 70 49 118 287 275 259 271 280 316 342 348 352 352 352 354 349 347 349 355 359 351 349 350 348 345 342 341 343 348 342 328 323 321 309 303 298 286 277 266 265 246 238 233 221
335 343 316 300 342 329 271 296 261 178 149 125 119 331 324 306 299 284 299 327 348 353 352 355 353 345 345 348 342 348 357 354 352 343 335 333 336 341 338 334 318 320 319 316 298 287 264 241 221 216 228 212 208 196
307 321 306 264 277 288 306 309 265 230 221 216 260 343 357 325 322 322 324 333 346 352 352 355 353 355 346 347 340 340 343 345 344 339 339 338 342 336 333 314 316 316 312 314 308 293 252 208 199 209 213 198 189 186
310 334 328 306 308 330 325 345 326 231 208 224 277 325 340 344 346 338 336 338 345 353 356 355 354 353 349 347 344 339 335 335 339 345 343 342 334 330 324 320 335 340 336 325 306 281 225 193 185 199 203 192 177 170
305 329 316 295 298 329 343 343 360 352 239 294 288 355 357 344 346 1 346 340 347 351 353 357 357 355 357 355 352 351 349 346 345 339 339 336 333 332 331 344 350 344 334 327 315 252 198 178 179 182 183 175 159 151
Height
1394 1395 1396 1397 1396 1396 1397 1398 1400 1402 1402 1400 1403 1405 1404 1407 1409 1410 1407 1411 1413 1406 1403 1407 1410 1410 1412 1410 1411 1414 1419 1414 1420 1418 1414 1406 1403 1395 1399 1391 1398 1412 1421 1419 1421 1416 1407 1397 1412 1408 1376 1379 1381 1380
1388 1389 1389 1389 1390 1392 1392 1394 1393 1394 1395 1398 1398 1396 1397 1399 1400 1403 1401 1405 1406 1405 1395 1396 1396 1398 1400 1402 1405 1404 1402 1404 1405 1407 1399 1398 1393 1388 1382 1381 1380 1386 1381 1383 1394 1383 1375 1377 1374 1373 1372 1372 1374 1376
1384 1384 1385 1385 1386 1387 1388 1388 1388 1388 1389 1389 1389 1389 1390 1391 1392 1395 1393 1396 1397 1394 1386 1383 1383 1383 1392 1391 1395 1393 1390 1393 1395 1395 1394 1392 1385 1382 1381 1374 1373 1371 1372 1369 1369 1366 1369 1368 1372 1373 1375 1376 1374 1377
1378 1378 1380 1381 1382 1382 1382 1382 1382 1382 1383 1382 1383 1383 1383 1385 1386 1387 1386 1387 1389 1385 1379 1371 1372 1375 1376 1378 1379 1381 1385 1386 1387 1388 1378 1378 1375 1366 1364 1364 1364 1368 1372 1366 1361 1361 1361 1361 1362 1364 1368 1372 1374 1374
1373 1373 1374 1375 1376 1376 1376 1376 1377 1377 1377 1377 1377 1377 1377 1378 1379 1380 1380 1379 1381 1382 1371 1369 1366 1365 1367 1368 1369 1370 1374 1377 1379 1379 1375 1369 1367 1366 1358 1362 1356 1358 1355 1353 1350 1356 1358 1361 1362 1362 1364 1365 1367 1371
1368 1368 1369 1370 1370 1371 1370 1371 1371 1370 1371 1371 1371 1371 1372 1373 1374 1375 1372 1371 1371 1374 1370 1365 1358 1355 1355 1356 1358 1360 1361 1365 1368 1366 1363 1359 1360 1359 1354 1349 1348 1351 1349 1350 1352 1354 1356 1357 1358 1359 1360 1362 1365 1367
1365 1365 1365 1365 1366 1366 1366 1366 1366 1366 1366 1366 1366 1366 1367 1368 1369 1370 1368 1368 1368 1368 1367 1360 1352 1348 1347 1346 1350 1354 1355 1357 1360 1357 1354 1355 1355 1358 1353 1347 1346 1348 1349 1348 1350 1353 1355 1355 1355 1358 1360 1362 1362 1365
1361 1361 1361 1361 1361 1361 1360 1360 1360 1360 1360 1360 1361 1362 1362 1362 1362 1362 1360 1363 1364 1364 1365 1358 1351 1351 1349 1347 1349 1349 1351 1354 1355 1352 1352 1353 1354 1353 1349 1344 1349 1350 1348 1350 1352 1352 1352 1353 1355 1358 1361 1363 1365 1366
1357 1356 1356 1356 1355 1355 1355 1354 1354 1354 1354 1355 1356 1357 1357 1357 1357 1357 1356 1357 1359 1363 1357 1352 1349 1345 1349 1350 1349 1349 1348 1350 1354 1351 1352 1355 1350 1347 1349 1350 1347 1347 1348 1349 1350 1351 1351 1353 1356 1359 1361 1362 1363 1365
1355 1354 1353 1352 1352 1351 1351 1350 1348 1346 1348 1351 1353 1355 1354 1354 1354 1356 1354 1354 1354 1353 1354 1354 1355 1351 1353 1348 1348 1349 1350 1349 1350 1352 1353 1353 1349 1352 1351 1351 1350 1349 1349 1350 1351 1353 1354 1355 1357 1359 1360 1362 1364 1367
1355 1354 1352 1350 1349 1348 1347 1346 1345 1343 1345 1348 1350 1352 1352 1353 1354 1353 1353 1353 1353 1357 1361 1361 1359 1356 1354 1353 1349 1351 1347 1349 1354 1358 1358 1353 1354 1353 1351 1350 1349 1349 1352 1353 1351 1352 1354 1356 1357 1358 1359 1362 1364 1366
1355 1352 1350 1347 1346 1345 1344 1344 1344 1344 1344 1347 1349 1351 1352 1354 1355 1356 1355 1359 1364 1370 1368 1365 1363 1361 1357 1355 1352 1352 1349 1348 1346 1356 1356 1355 1359 1356 1355 1353 1352 1352 1351 1351 1352 1354 1355 1357 1357 1358 1360 1362 1364 1366
1355 1353 1350 1348 1346 1345 1345 1344 1344 1344 1346 1348 1350 1353 1358 1363 1369 1374 1377 1368 1371 1374 1372 1370 1365 1361 1357 1355 1352 1351 1348 1350 1356 1354 1347 1355 1357 1356 1355 1354 1352 1352 1353 1354 1355 1356 1356 1357 1359 1360 1361 1362 1363 1364
1357 1355 1352 1349 1348 1347 1346 1346 1346 1347 1347 1350 1357 1369 1375 1382 1387 1387 1388 1386 1382 1378 1375 1371 1366 1362 1358 1355 1354 1352 1358 1357 1353 1354 1350 1360 1360 1357 1356 1355 1354 1354 1355 1356 1356 1357 1358 1359 1360 1360 1361 1361 1362 1363
1359 1357 1355 1351 1349 1348 1348 1348 1348 1349 1351 1361 1370 1385 1391 1392 1391 1390 1388 1384 1381 1378 1374 1369 1365 1362 1357 1356 1355 1356 1355 1351 1347 1357 1364 1364 1361 1359 1356 1355 1355 1355 1355 1356 1357 1357 1358 1359 1359 1360 1360 1361 1361 1362
1360 1359 1357 1354 1352 1351 1350 1351 1352 1352 1364 1376 1388 1394 1395 1393 1393 1390 1387 1384 1380 1375 1370 1369 1364 1359 1356 1358 1355 1352 1349 1366 1371 1371 1369 1365 1361 1357 1356 1355 1355 1355 1355 1355 1356 1356 1357 1358 1358 1359 1359 1359 1360 1361
1361 1361 1361 1359 1356 1354 1354 1354 1357 1366 1380 1390 1400 1400 1400 1398 1397 1393 1388 1384 1379 1375 1371 1367 1364 1366 1363 1359 1362 1370 1378 1378 1374 1370 1367 1364 1360 1357 1355 1354 1353 1353 1353 1353 1354 1354 1355 1356 1357 1357 1357 1358 1358 1359
1365 1367 1365 1365 1363 1361 1357 1360 1369 1382 1394 1399 1400 1401 1400 1400 1398 1394 1390 1384 1380 1378 1377 1379 1376 1375 1379 1381 1378 1381 1380 1377 1374 1369 1364 1360 1357 1354 1352 1350 1350 1350 1350 1351 1351 1352 1353 1354 1354 1354 1355 1355 1356 1356
1377 1375 1373 1371 1368 1367 1369 1375 1381 1391 1399 1400 1401 1401 1400 1400 1401 1398 1394 1390 1386 1383 1382 1384 1388 1392 1393 1391 1387 1382 1379 1375 1368 1363 1359 1356 1354 1351 1349 1348 1347 1347 1347 1348 1348 1349 1349 1350 1350 1351 1351 1352 1352 1352
1387 1384 1380 1377 1375 1374 1379 1387 1391 1394 1400 1402 1402 1402 1402 1402 1401 1399 1396 1394 1392 1391 1395 1399 1402 1401 1397 1392 1387 1382 1376 1372 1367 1360 1356 1354 1352 1350 1348 1346 1345 1344 1344 1344 1344 1345 1345 1346 1347 1347 1347 1348 1348 1349
1399 1396 1395 1390 1384 1382 1389 1395 1398 1400 1401 1402 1402 1401 1402 1402 1401 1400 1399 1397 1399 1405 1406 1406 1402 1397 1393 1387 1382 1377 1372 1368 1364 1360 1354 1349 1348 1347 1345 1344 1342 1341 1340 1340 1340 1341 1342 1340 1342 1342 1343 1343 1344 1345
1404 1403 1399 1397 1395 1395 1399 1403 1404 1404 1403 1402 1402 1401 1401 1402 1402 1401 1401 1401 1406 1410 1407 1403 1399 1392 1385 1380 1376 1372 1368 1364 1359 1355 1352 1349 1345 1344 1342 1340 1339 1337 1336 1336 1336 1335 1336 1337 1337 1338 1339 1340 1341 1341
1408 1405 1403 1403 1402 1403 1410 1407 1405 1405 1406 1403 1402 1403 1404 1403 1403 1403 1404 1407 1409 1408 1404 1399 1394 1389 1383 1378 1373 1369 1365 1360 1356 1352 1348 1345 1342 1340 1338 1336 1335 1333 1332 1331 1331 1331 1331 1333 1334 1335 1335 1336 1337 1338
1409 1408 1407 1408 1408 1410 1409 1407 1407 1407 1406 1408 1410 1410 1407 1404 1403 1403 1409 1407 1408 1404 1399 1394 1388 1382 1378 1374 1370 1366 1362 1357 1353 1348 1345 1341 1338 1336 1334 1332 1331 1329 1328 1328 1327 1327 1327 1328 1329 1330 1331 1332 1333 1334
1413 1416 1416 1414 1413 1412 1415 1413 1412 1412 1416 1414 1415 1413 1410 1408 1411 1414 1412 1408 1405 1401 1396 1390 1386 1382 1377 1372 1368 1364 1361 1357 1351 1346 1343 1340 1337 1333 1331 1329 1327 1326 1325 1324 1323 1323 1323 1324 1324 1325 1327 1327 1329 1330
1420 1419 1418 1417 1417 1418 1419 1420 1421 1421 1419 1420 1414 1411 1410 1411 1418 1419 1410 1408 1405 1401 1395 1389 1384 1379 1375 1373 1367 1361 1358 1354 1350 1346 1341 1338 1335 1332 1329 1327 1324 1323 1322 1322 1321 1320 1319 1319 1320 1321 1322 1324 1326 1327
1422 1421 1420 1419 1418 1419 1418 1417 1417 1418 1420 1420 1415 1413 1414 1421 1420 1412 1410 1408 1404 1400 1395 1390 1385 1380 1375 1370 1366 1361 1357 1353 1349 1345 1340 1337 1335 1332 1330 1327 1324 1322 1320 1319 1318 1317 1316 1316 1316 1317 1318 1319 1321 1323
1422 1421 1422 1420 1418 1418 1418 1418 1419 1419 1416 1415 1414 1417 1418 1418 1415 1410 1409 1407 1404 1399 1394 1388 1384 1379 1375 1370 1365 1359 1354 1350 1345 1342 1338 1336 1333 1329 1326 1324 1322 1321 1318 1315 1314 1312 1312 1312 1312 1312 1313 1314 1316 1319
1424 1423 1421 1419 1418 1417 1417 1417 1415 1415 1415 1415 1415 1416 1414 1412 1410 1408 1407 1405 1402 1397 1390 1385 1380 1376 1372 1367 1363 1358 1353 1347 1342 1335 1332 1329 1325 1323 1321 1319 1317 1314 1311 1309 1308 1308 1307 1307 1308 1309 1310 1312 1314 1316
1427 1425 1422 1420 1420 1418 1417 1417 1415 1415 1415 1415 1415 1414 1412 1410 1408 1407 1406 1404 1399 1394 1390 1385 1380 1374 1369 1363 1357 1354 1351 1346 1343 1338 1332 1327 1323 1320 1317 1314 1311 1308 1305 1302 1300 1300 1300 1302 1305 1307 1308 1309 1311 1314
1430 1427 1424 1421 1419 1417 1416 1415 1414 1414 1414 1414 1414 1413 1411 1409 1408 1407 1406 1403 1399 1394 1387 1382 1377 1372 1366 1361 1356 1350 1345 1343 1338 1335 1330 1326 1321 1316 1313 1309 1306 1302 1299 1297 1296 1295 1296 1298 1300 1302 1306 1308 1310 1313
1431 1429 1428 1424 1419 1417 1416 1414 1412 1412 1412 1413 1413 1412 1411 1409 1408 1407 1405 1402 1398 1392 1387 1382 1375 1370 1366 1361 1356 1352 1347 1341 1334 1328 1323 1320 1317 1313 1307 1303 1300 1297 1296 1294 1292 1292 1293 1295 1298 1301 1305 1308 1311 1314
1431 1430 1428 1425 1420 1417 1416 1415 1414 1413 1413 1413 1413 1413 1413 1412 1409 1409 1406 1401 1398 1393 1388 1383 1377 1371 1366 1359 1355 1349 1344 1338 1331 1326 1320 1317 1312 1308 1302 1299 1297 1294 1293 1291 1289 1289 1291 1294 1297 1301 1305 1309 1312 1315